Notices

What's New in latest Release from April 7th, 2021:

- Updated Glossary, including Speed of Maximum Gust, and Total Hourly Precipitation

- Updated national and regional climate services offices contacts and prices information

- Addition of station inventory lists for 1981-2010, 1971-2000, and 1961-1990 Normals.

If you haven't already, please take our survey and provide feedback about our website: https://eccc.sondage-survey.ca/f/LanguageSelection.aspx?s=442ca660-fcf1-47c0-95a9-59707d6fd709

Hourly Data Report for July 07, 2019

TORONTO CITY
ONTARIO
Current Station Operator: ECCC - MSC

43°40'00.000" N
79°24'00.000" W
112.50 m
6158355
71508
XTO

Download Data

Hourly Data (July 2019)
Hourly Data Report for July 7, 2019
TIME
LST
Temp Definition
°C
Dew Point Definition
°C
Rel Hum Definition
%
Precip. Amount Definition
mm

Wind Dir Definition
10's deg

Wind Spd Definition
km/h
Visibility Definition
km
Stn Press Definition
kPa
Hmdx Definition


Wind Chill Definition


Weather Definition


00:00 22.6 17.4 73 0.0       100.19 28   LegendNANA
01:00 21.8 15.8 68 0.0       100.21 26   LegendNANA
02:00 20.5 14.2 67 0.0       100.25     LegendNANA
03:00 20.7 13.0 61 0.0       100.25     LegendNANA
04:00 20.5 13.3 63 0.0       100.29     LegendNANA
05:00 20.5 7.7 44 0.0       100.35     LegendNANA
06:00 20.1 7.4 44 0.0       100.36     LegendNANA
07:00 20.0 8.3 47 0.0       100.39     LegendNANA
08:00 21.0 8.1 43 0.2       100.43     LegendNANA
09:00 21.5 6.8 39 0.0       100.46     LegendNANA
10:00 22.2 6.9 37 0.0       100.44     LegendNANA
11:00 22.6 6.5 35 0.0       100.43     LegendNANA
12:00 22.4 7.1 37 0.0       100.43     LegendNANA
13:00 22.6 8.3 40 0.0       100.38     LegendNANA
14:00 22.7 8.2 39 0.0       100.34     LegendNANA
15:00 22.3 7.8 39 0.0       100.28     LegendNANA
16:00 22.8 8.0 39 0.0       100.24     LegendNANA
17:00 22.1 9.0 43 0.0       100.24     LegendNANA
18:00 21.6 7.4 40 0.0       100.23     LegendNANA
19:00 21.4 8.7 44 0.0       100.25     LegendNANA
20:00 20.8 7.5 42 0.0       100.24     LegendNANA
21:00 19.5 8.7 50 0.0       100.28     LegendNANA
22:00 19.9 8.8 49 0.0       100.31     LegendNANA
23:00 19.1 8.6 51 0.0       100.30     LegendNANA

Notes on Data Quality.

Legend

  • E = Estimated
  • M = Missing
  • NA = Not Available*
  • [empty] = Indicates an unobserved value
Date modified: